カタログに戻る

INTELSAT 33E DEB

運用中GEO
NORAD 62000·DEBRIS· XX

打ち上げ Aug 24, 2016 から Guiana Space Centre

Loading…

TLE

最新Source: Space-Track

元期: Sep 13, 2026, 23:44 UTC

1 62000U 16053S   26256.98928329 -.00000293  00000-0  00000-0 0  9999
2 62000   1.9317  89.5461 0039473 352.5369   8.1300  1.00110188  6977

AllMySatでINTELSAT 33E DEBをリアルタイム追跡

Download on the App Store